Voltar ao catálogo

CZ-4 DEB

AtivoSSO
NORAD 35322·DEBRIS·🇨🇳 China

Lançado Oct 14, 1999 de Taiyuan Satellite Launch Center

Loading…

Próximas Passagens (próximas 24 horas)

TLE

AtualizadoSource: Space-Track

Época: Sep 13, 2026, 09:04 UTC

1 35322U 99057SA  26256.37819903  .00000308  00000-0  15378-3 0  9994
2 35322  99.0748 306.5219 0195791 203.2036 156.0206 14.14658006683640

Acompanhe CZ-4 DEB em tempo real com AllMySat

Download on the App Store